Surface/Precipitation History
01/17/2017 17:12  to  1/18/2017 17:12
Change End Date:
Date/Time
(MST)
Sf
Temp Chem Water Layer Surface Precipitation
Sfc Pvt Sub Frz Factor Pct Dpth DpthThk IcePct Cond Salin FI Type Intens Accum Rate
01/18/2017 17:10 Ice Watch 24.3F - 18F - 55 - - - - 19 mhos 3248 - None None - -
01/18/2017 17:08 Ice Watch 24.4F - 18F - 55 - - - - 19 mhos 3242 - None None - -
01/18/2017 16:58 Ice Watch 24.4F - 18F - 50 - - - - 20 mhos 3320 - None None - -
01/18/2017 16:55 Ice Watch 24.4F - 18F - 30 - - - - 20 mhos 3360 - None None - -
01/18/2017 16:48 Ice Watch 24.6F - 18F - 50 - - - - 20 mhos 3363 - None None - -
01/18/2017 16:40 Ice Watch 24.6F - 18F - 50 - - - - 20 mhos 3373 - None None - -
01/18/2017 16:38 Ice Watch 24.6F - 18F - 55 - - - - 20 mhos 3384 - None None - -
01/18/2017 16:28 Ice Watch 24.4F - 18F - 60 - - - - 21 mhos 3475 - None None - -
01/18/2017 16:25 Ice Watch 24.4F - 17F - 65 - - - - 21 mhos 3496 - None None - -
01/18/2017 16:18 Ice Watch 24.1F - 17F - 65 - - - - 21 mhos 3618 - None None - -
01/18/2017 16:10 Ice Watch 24.6F - 17F - 60 - - - - 22 mhos 3605 - None None - -
01/18/2017 16:08 Ice Watch 24.6F - 17F - 60 - - - - 22 mhos 3616 - None None - -
01/18/2017 15:58 Ice Watch 26.1F - 17F - 70 - - - - 24 mhos 3425 - None None - -
01/18/2017 15:55 Ice Watch 26.4F - 17F - 75 - - - - 24 mhos 3398 - None None - -
01/18/2017 15:48 Ice Watch 27.1F - 17F - 80 - - - - 25 mhos 3374 - None None - -
Date/Time
(MST)
Sf
Temp Chem Water Layer Surface Precipitation
Sfc Pvt Sub Frz Factor Pct Dpth DpthThk IcePct Cond Salin FI Type Intens Accum Rate
01/18/2017 15:40 Ice Watch 29.1F - 17F - 85 - - - - 27 mhos 3200 - None None - -
01/18/2017 15:38 Ice Watch 30.2F - 17F - 85 - - - - 28 mhos 3264 - None None - -
01/18/2017 15:28 Dry 31.6F - 17F - - - - - - 31 mhos 3555 - None None - -
01/18/2017 15:25 Dry 32.2F - 17F - - - - - - 32 mhos 3668 - None None - -
01/18/2017 15:18 Dry 32.5F - 17F - - - - - - 34 mhos 3898 - None None - -
01/18/2017 15:10 Dry 33.3F - 17F - - - - - - 37 mhos 4218 - None None - -
01/18/2017 15:08 Dry 33.6F - 17F - - - - - - 37 mhos 4263 - None None - -
01/18/2017 14:57 Dry 34.5F - 17F - - - - - - 41 mhos 4637 - None None - -
01/18/2017 14:55 Dry 35.1F - 17F - - - - - - 42 mhos 4756 - None None - -
01/18/2017 14:47 Dry 35.6F - 17F - - - - - - 43 mhos 4939 - None None - -
01/18/2017 14:40 Dry 35.2F - 17F - - - - - - 43 mhos 4970 - None None - -
01/18/2017 14:37 Dry 34.3F - 17F - - - - - - 42 mhos 4908 - None None - -
01/18/2017 14:27 Dry 32.5F - 17F - - - - - - 42 mhos 5025 - None None - -
01/18/2017 14:25 Dry 31.5F - 17F - - - - - - 42 mhos 5015 - None None - -
01/18/2017 14:17 Ice Watch 31.1F - 17F - 80 - - - - 43 mhos 5204 - None None - -
Date/Time
(MST)
Sf
Temp Chem Water Layer Surface Precipitation
Sfc Pvt Sub Frz Factor Pct Dpth DpthThk IcePct Cond Salin FI Type Intens Accum Rate
01/18/2017 14:10 Ice Watch 30.0F - 17F - 75 - - - - 43 mhos 5419 - None None - -
01/18/2017 14:07 Ice Watch 29.8F - 17F - 75 - - - - 44 mhos 5492 - None None - -
01/18/2017 13:57 Ice Watch 29.8F - 17F - 75 - - - - 45 mhos 5720 - None None - -
01/18/2017 13:55 Ice Watch 30.0F - 17F - 75 - - - - 45 mhos 5770 - None None - -
01/18/2017 13:47 Ice Watch 30.0F - 17F - 80 - - - - 46 mhos 5881 - None None - -
01/18/2017 13:40 Ice Watch 30.0F - 17F - 80 - - - - 48 mhos 6150 - None None - -
01/18/2017 13:37 Ice Watch 29.8F - 17F - 80 - - - - 48 mhos 6319 - None None - -
01/18/2017 13:27 Dry 29.7F - 17F - - - - - - 51 mhos 6817 - None None - -
01/18/2017 13:25 Ice Watch 29.5F - 16F - 80 - - - - 52 mhos 6936 - None None - -
01/18/2017 13:17 Ice Watch 29.1F - 16F - 75 - - - - 53 mhos 7282 - None None - -
01/18/2017 13:10 Ice Watch 28.8F - 16F - 75 - - - - 55 mhos 7823 - None None - -
01/18/2017 13:07 Ice Watch 28.6F - 16F - 75 - - - - 56 mhos 8104 - None None - -
01/18/2017 12:57 Ice Watch 28.4F - 16F - 70 - - - - 59 mhos 8868 - None None - -
01/18/2017 12:55 Ice Watch 28.6F - 16F - 70 - - - - 60 mhos 8988 - None None - -
01/18/2017 12:47 Ice Watch 28.2F - 16F - 70 - - - - 63 mhos 9844 - None None - -
Date/Time
(MST)
Sf
Temp Chem Water Layer Surface Precipitation
Sfc Pvt Sub Frz Factor Pct Dpth DpthThk IcePct Cond Salin FI Type Intens Accum Rate
01/18/2017 12:40 Ice Watch 27.9F - 16F - 65 - - - - 66 mhos 11052 - None None - -
01/18/2017 12:37 Ice Watch 27.7F - 16F - 65 - - - - 67 mhos 11446 - None None - -
01/18/2017 12:27 Ice Watch 27.3F - 16F - 60 - - - - 71 mhos 15000 - None None - -
01/18/2017 12:25 Ice Watch 27.0F - 16F - 60 - - - - 72 mhos 15000 - None None - -
01/18/2017 12:17 Ice Watch 26.6F - 16F - 55 - - - - 75 mhos 15000 - None None - -
01/18/2017 12:10 Ice Watch 26.1F - 16F - 50 - - - - 78 mhos 15000 - None None - -
01/18/2017 12:07 Ice Watch 25.9F - 16F - 45 - - - - 79 mhos 15000 - None None - -
01/18/2017 11:57 Ice Watch 25.7F - 16F - 40 - - - - 84 mhos 15000 - None None - -
01/18/2017 11:55 Ice Watch 25.5F - 16F - 40 - - - - 85 mhos 15000 - None None - -
01/18/2017 11:46 Ice Watch 24.8F - 16F - 35 - - - - 88 mhos 15000 - None None - -
01/18/2017 11:40 Ice Watch 24.1F - 16F - 35 - - - - 92 mhos 15000 - None None - -
01/18/2017 11:36 Ice Watch 24.1F - 16F - 30 - - - - 95 mhos 15000 - None None - -
01/18/2017 11:26 Ice Watch 23.4F - 16F - 20 - - - - 102 mhos 15000 - None None - -
01/18/2017 11:25 Ice Watch 23.4F - 16F - 20 - - - - 104 mhos 15000 - None None - -
01/18/2017 11:16 Ice Watch 23.0F - 16F - 15 - - - - 112 mhos 15000 - None None - -
Date/Time
(MST)
Sf
Temp Chem Water Layer Surface Precipitation
Sfc Pvt Sub Frz Factor Pct Dpth DpthThk IcePct Cond Salin FI Type Intens Accum Rate
01/18/2017 11:10 Ice Watch 22.5F - 16F - 15 - - - - 116 mhos 15000 - None None - -
01/18/2017 11:06 Ice Watch 22.3F - 16F - 10 - - - - 119 mhos 15000 - None None - -
01/18/2017 10:56 Ice Watch 22.1F - 16F - 5 - - - - 132 mhos 15000 - None None - -
01/18/2017 10:55 Ice Watch 21.7F - 16F - 5 - - - - 132 mhos 15000 - None None - -
01/18/2017 10:46 Ice Watch 21.6F - 16F - 5 - - - - 142 mhos 15000 - None None - -
01/18/2017 10:40 Ice Watch 21.2F - 16F - 5 - - - - 153 mhos 15000 - None None - -
01/18/2017 10:36 Ice Watch 20.8F - 16F - 5 - - - - 150 mhos 15000 - None None - -
01/18/2017 10:26 Ice Watch 20.1F - 16F - 5 - - - - 163 mhos 15000 - None None - -
01/18/2017 10:25 Ice Watch 20.1F - 16F - 5 - - - - 163 mhos 15000 - None None - -
01/18/2017 10:16 Ice Watch 19.2F - 16F - 5 - - - - 173 mhos 15000 - None None - -
01/18/2017 10:10 Ice Watch 18.5F - 16F - 5 - - - - 178 mhos 15000 - None None - -
01/18/2017 10:06 Ice Watch 18.1F - 16F - 5 - - - - 178 mhos 15000 - None None - -
01/18/2017 09:56 Ice Watch 17.8F - 16F - 5 - - - - 184 mhos 15000 - None None - -
01/18/2017 09:55 Ice Watch 17.8F - 16F - 5 - - - - 190 mhos 15000 - None None - -
01/18/2017 09:46 Ice Watch 17.1F - 16F - 5 - - - - 190 mhos 15000 - None None - -
Date/Time
(MST)
Sf
Temp Chem Water Layer Surface Precipitation
Sfc Pvt Sub Frz Factor Pct Dpth DpthThk IcePct Cond Salin FI Type Intens Accum Rate
01/18/2017 09:40 Ice Watch 16.7F - 16F - 5 - - - - 190 mhos 15000 - None None - -
01/18/2017 09:36 Ice Watch 16.2F - 16F - 5 - - - - 190 mhos 15000 - None None - -
01/18/2017 09:26 Ice Watch 15.8F - 16F - 5 - - - - 199 mhos 15000 - None None - -
01/18/2017 09:25 Ice Watch 15.6F - 16F - 5 - - - - 199 mhos 15000 - None None - -
01/18/2017 09:16 Ice Watch 15.4F - 16F - 10 - - - - 199 mhos 15000 - None None - -
01/18/2017 09:10 Ice Watch 15.1F - 16F - 20 - - - - 198 mhos 15000 - None None - -
01/18/2017 09:06 Ice Watch 15.1F - 16F - 20 - - - - 198 mhos 15000 - None None - -
01/18/2017 08:56 Ice Watch 14.2F - 16F - 20 - - - - 198 mhos 15000 - None None - -
01/18/2017 08:55 Ice Watch 14.2F - 16F - 25 - - - - 198 mhos 15000 - None None - -
01/18/2017 08:46 Ice Watch 13.8F - 16F - 25 - - - - 192 mhos 15000 - None None - -
01/18/2017 08:40 Ice Watch 13.5F - 16F - 25 - - - - 192 mhos 15000 - None None - -
01/18/2017 08:35 Ice Watch 13.5F - 16F - 25 - - - - 186 mhos 15000 - None None - -
01/18/2017 08:25 Ice Watch 13.1F - 16F - 25 - - - - 186 mhos 15000 - None None - -
01/18/2017 08:25 Ice Watch 13.1F - 16F - 30 - - - - 186 mhos 15000 - None None - -
01/18/2017 08:15 Ice Watch 12.2F - 16F - 30 - - - - 180 mhos 15000 - None None - -
Date/Time
(MST)
Sf
Temp Chem Water Layer Surface Precipitation
Sfc Pvt Sub Frz Factor Pct Dpth DpthThk IcePct Cond Salin FI Type Intens Accum Rate
01/18/2017 08:10 Ice Watch 11.8F - 16F - 30 - - - - 175 mhos 15000 - None None - -
01/18/2017 08:05 Ice Watch 11.5F - 16F - 30 - - - - 170 mhos 15000 - None None - -
01/18/2017 07:55 Ice Watch 11.1F - 16F - 35 - - - - 160 mhos 15000 - None None - -
01/18/2017 07:55 Ice Watch 11.1F - 16F - 35 - - - - 160 mhos 15000 - None None - -
01/18/2017 07:45 Ice Watch 10.4F - 16F - 30 - - - - 152 mhos 15000 - None None - -
01/18/2017 07:40 Ice Watch 10.2F - 16F - 35 - - - - 148 mhos 15000 - None None - -
01/18/2017 07:35 Ice Watch 10.0F - 16F - 35 - - - - 145 mhos 15000 - None None - -
01/18/2017 07:25 Ice Watch 10.2F - 16F - 35 - - - - 138 mhos 15000 - None None - -
01/18/2017 07:25 Ice Watch 10.2F - 16F - 35 - - - - 138 mhos 15000 - None None - -
01/18/2017 07:15 Ice Watch 10.4F - 16F - 35 - - - - 132 mhos 15000 - None None - -
01/18/2017 07:10 Ice Watch 10.4F - 16F - 35 - - - - 129 mhos 15000 - None None - -
01/18/2017 07:05 Ice Watch 10.4F - 16F - 35 - - - - 126 mhos 15000 - None None - -
01/18/2017 06:55 Ice Watch 10.2F - 16F - 40 - - - - 116 mhos 15000 - None None - -
01/18/2017 06:55 Ice Watch 10.2F - 16F - 40 - - - - 116 mhos 15000 - None None - -
01/18/2017 06:45 Ice Watch 10.0F - 16F - 40 - - - - 105 mhos 15000 - None None - -
Date/Time
(MST)
Sf
Temp Chem Water Layer Surface Precipitation
Sfc Pvt Sub Frz Factor Pct Dpth DpthThk IcePct Cond Salin FI Type Intens Accum Rate
01/18/2017 06:40 Ice Watch 9.9F - 16F - 40 - - - - 102 mhos 15000 - None None - -
01/18/2017 06:35 Ice Watch 9.5F - 16F - 40 - - - - 97 mhos 15000 - None None - -
01/18/2017 06:25 Ice Watch 9.0F - 16F - 40 - - - - 85 mhos 15000 - None None - -
01/18/2017 06:25 Ice Watch 9.0F - 16F - 40 - - - - 85 mhos 15000 - None None - -
01/18/2017 06:15 Ice Watch 8.1F - 16F - 35 - - - - 76 mhos 15000 - None None - -
01/18/2017 06:10 Ice Watch 7.2F - 16F - 35 - - - - 72 mhos 15000 - None None - -
01/18/2017 06:05 Ice Watch 7.3F - 16F - 35 - - - - 68 mhos 15000 - None None - -
01/18/2017 05:55 Ice Watch 7.5F - 17F - 35 - - - - 62 mhos 15000 - None None - -
01/18/2017 05:55 Ice Watch 7.7F - 17F - 35 - - - - 62 mhos 15000 - None None - -
01/18/2017 05:45 Ice Watch 8.1F - 17F - 30 - - - - 56 mhos 15000 - None None - -
01/18/2017 05:40 Ice Watch 8.2F - 17F - 30 - - - - 54 mhos 15000 - None None - -
01/18/2017 05:35 Ice Watch 8.2F - 16F - 30 - - - - 52 mhos 15000 - None None - -
01/18/2017 05:25 Ice Watch 8.1F - 16F - 30 - - - - 49 mhos 13393 - None None - -
01/18/2017 05:24 Ice Watch 8.1F - 17F - 30 - - - - 49 mhos 13348 - None None - -
01/18/2017 05:14 Ice Watch 7.7F - 16F - 30 - - - - 46 mhos 13133 - None None - -
Date/Time
(MST)
Sf
Temp Chem Water Layer Surface Precipitation
Sfc Pvt Sub Frz Factor Pct Dpth DpthThk IcePct Cond Salin FI Type Intens Accum Rate
01/18/2017 05:10 Ice Watch 7.5F - 17F - 30 - - - - 45 mhos 13059 - None None - -
01/18/2017 05:04 Ice Watch 7.5F - 17F - 30 - - - - 43 mhos 12858 - None None - -
01/18/2017 04:55 Ice Watch 8.1F - 17F - 30 - - - - 41 mhos 12448 - None None - -
01/18/2017 04:54 Ice Watch 7.9F - 16F - 30 - - - - 41 mhos 12459 - None None - -
01/18/2017 04:44 Ice Watch 8.1F - 17F - 30 - - - - 39 mhos 12137 - None None - -
01/18/2017 04:40 Ice Watch 8.2F - 17F - 30 - - - - 37 mhos 11850 - None None - -
01/18/2017 04:34 Ice Watch 8.4F - 17F - 30 - - - - 36 mhos 11665 - None None - -
01/18/2017 04:25 Ice Watch 8.4F - 17F - 30 - - - - 34 mhos 11329 - None None - -
01/18/2017 04:24 Ice Watch 8.6F - 17F - 30 - - - - 34 mhos 11233 - None None - -
01/18/2017 04:14 Ice Watch 8.4F - 17F - 30 - - - - 32 mhos 10970 - None None - -
01/18/2017 04:10 Ice Watch 8.4F - 17F - 30 - - - - 31 mhos 10828 - None None - -
01/18/2017 04:04 Ice Watch 8.4F - 17F - 30 - - - - 30 mhos 10636 - None None - -
01/18/2017 03:55 Ice Watch 8.6F - 17F - 30 - - - - 29 mhos 10369 - None None - -
01/18/2017 03:54 Ice Watch 8.6F - 17F - 30 - - - - 29 mhos 10343 - None None - -
01/18/2017 03:44 Ice Watch 8.4F - 17F - 30 - - - - 27 mhos 10084 - None None - -
Date/Time
(MST)
Sf
Temp Chem Water Layer Surface Precipitation
Sfc Pvt Sub Frz Factor Pct Dpth DpthThk IcePct Cond Salin FI Type Intens Accum Rate
01/18/2017 03:40 Ice Watch 8.2F - 17F - 30 - - - - 26 mhos 10024 - None None - -
01/18/2017 03:34 Ice Watch 8.2F - 17F - 30 - - - - 25 mhos 9911 - None None - -
01/18/2017 03:25 Ice Watch 8.2F - 17F - 30 - - - - 24 mhos 9688 - None None - -
01/18/2017 03:24 Ice Watch 8.2F - 17F - 30 - - - - 24 mhos 9713 - None None - -
01/18/2017 03:14 Ice Watch 8.2F - 17F - 30 - - - - 23 mhos 9523 - None None - -
01/18/2017 03:10 Ice Watch 8.4F - 17F - 30 - - - - 23 mhos 9372 - None None - -
01/18/2017 03:04 Ice Watch 8.4F - 17F - 30 - - - - 23 mhos 9251 - None None - -
01/18/2017 02:55 Ice Watch 7.7F - 17F - 25 - - - - 22 mhos 9316 - None None - -
01/18/2017 02:54 Ice Watch 7.9F - 17F - 25 - - - - 22 mhos 9269 - None None - -
01/18/2017 02:44 Ice Watch 8.2F - 17F - 25 - - - - 21 mhos 9072 - None None - -
01/18/2017 02:40 Ice Watch 8.2F - 17F - 25 - - - - 21 mhos 9014 - None None - -
01/18/2017 02:34 Ice Watch 8.2F - 17F - 25 - - - - 21 mhos 8961 - None None - -
01/18/2017 02:25 Ice Watch 7.9F - 17F - 25 - - - - 20 mhos 8923 - None None - -
01/18/2017 02:24 Ice Watch 7.7F - 17F - 25 - - - - 20 mhos 8952 - None None - -
01/18/2017 02:13 Ice Watch 7.9F - 17F - 25 - - - - 20 mhos 8837 - None None - -
Date/Time
(MST)
Sf
Temp Chem Water Layer Surface Precipitation
Sfc Pvt Sub Frz Factor Pct Dpth DpthThk IcePct Cond Salin FI Type Intens Accum Rate
01/18/2017 02:10 Ice Watch 7.9F - 17F - 25 - - - - 20 mhos 8820 - None None - -
01/18/2017 02:03 Ice Watch 8.2F - 17F - 25 - - - - 20 mhos 8681 - None None - -
01/18/2017 01:55 Ice Watch 8.2F - 17F - 25 - - - - 19 mhos 8596 - None None - -
01/18/2017 01:53 Ice Watch 8.2F - 17F - 25 - - - - 19 mhos 8535 - None None - -
01/18/2017 01:43 Ice Watch 8.2F - 17F - 25 - - - - 19 mhos 8436 - None None - -
01/18/2017 01:40 Ice Watch 8.4F - 17F - 25 - - - - 19 mhos 8405 - None None - -
01/18/2017 01:33 Ice Watch 8.2F - 17F - 25 - - - - 18 mhos 8326 - None None - -
01/18/2017 01:25 Ice Watch 8.2F - 17F - 25 - - - - 18 mhos 8235 - None None - -
01/18/2017 01:23 Ice Watch 8.1F - 17F - 25 - - - - 18 mhos 8325 - None None - -
01/18/2017 01:13 Ice Watch 8.2F - 17F - 20 - - - - 18 mhos 8147 - None None - -
01/18/2017 01:10 Ice Watch 8.2F - 17F - 20 - - - - 18 mhos 8132 - None None - -
01/18/2017 01:03 Ice Watch 8.4F - 17F - 20 - - - - 18 mhos 8073 - None None - -
01/18/2017 00:55 Ice Watch 8.6F - 17F - 20 - - - - 18 mhos 8012 - None None - -
01/18/2017 00:53 Ice Watch 8.6F - 17F - 20 - - - - 18 mhos 8013 - None None - -
01/18/2017 00:43 Ice Watch 8.6F - 17F - 20 - - - - 17 mhos 7926 - None None - -
Date/Time
(MST)
Sf
Temp Chem Water Layer Surface Precipitation
Sfc Pvt Sub Frz Factor Pct Dpth DpthThk IcePct Cond Salin FI Type Intens Accum Rate
01/18/2017 00:40 Ice Watch 9.0F - 17F - 20 - - - - 17 mhos 7809 - None None - -
01/18/2017 00:33 Ice Watch 9.0F - 17F - 20 - - - - 17 mhos 7768 - None None - -
01/18/2017 00:25 Ice Watch 9.1F - 17F - 20 - - - - 17 mhos 7669 - None None - -
01/18/2017 00:23 Ice Watch 9.0F - 17F - 20 - - - - 17 mhos 7699 - None None - -
01/18/2017 00:13 Ice Watch 9.3F - 17F - 15 - - - - 17 mhos 7531 - None None - -
01/18/2017 00:10 Ice Watch 9.3F - 17F - 15 - - - - 17 mhos 7492 - None None - -
01/18/2017 00:03 Ice Watch 9.3F - 17F - 10 - - - - 16 mhos 7407 - None None - -
01/17/2017 23:55 Ice Watch 9.0F - 17F - 5 - - - - 16 mhos 7407 - None None - -
01/17/2017 23:53 Ice Watch 9.1F - 17F - 5 - - - - 16 mhos 7355 - None None - -
01/17/2017 23:43 Ice Watch 9.0F - 17F - 5 - - - - 16 mhos 7348 - None None - -
01/17/2017 23:40 Ice Watch 9.1F - 17F - 5 - - - - 16 mhos 7295 - None None - -
01/17/2017 23:33 Ice Watch 9.1F - 17F - 5 - - - - 16 mhos 7242 - None None - -
01/17/2017 23:25 Ice Watch 9.3F - 17F - 5 - - - - 15 mhos 7126 - None None - -
01/17/2017 23:23 Ice Watch 9.1F - 17F - 5 - - - - 15 mhos 7116 - None None - -
01/17/2017 23:13 Ice Watch 9.5F - 17F - 5 - - - - 15 mhos 6978 - None None - -
Date/Time
(MST)
Sf
Temp Chem Water Layer Surface Precipitation
Sfc Pvt Sub Frz Factor Pct Dpth DpthThk IcePct Cond Salin FI Type Intens Accum Rate
01/17/2017 23:10 Ice Watch 9.5F - 17F - 5 - - - - 15 mhos 6996 - None None - -
01/17/2017 23:02 Ice Watch 9.3F - 17F - 5 - - - - 15 mhos 6923 - None None - -
01/17/2017 22:55 Ice Watch 9.1F - 17F - 5 - - - - 14 mhos 6865 - None None - -
01/17/2017 22:52 Ice Watch 9.3F - 17F - 5 - - - - 14 mhos 6786 - None None - -
01/17/2017 22:42 Ice Watch 9.5F - 17F - 5 - - - - 14 mhos 6708 - None None - -
01/17/2017 22:40 Ice Watch 9.5F - 17F - 5 - - - - 14 mhos 6667 - None None - -
01/17/2017 22:32 Ice Watch 9.5F - 17F - 5 - - - - 14 mhos 6620 - None None - -
01/17/2017 22:25 Ice Watch 9.9F - 17F - 5 - - - - 14 mhos 6481 - None None - -
01/17/2017 22:22 Ice Watch 9.9F - 17F - 5 - - - - 14 mhos 6477 - None None - -
01/17/2017 22:12 Ice Watch 10.2F - 17F - 5 - - - - 14 mhos 6378 - None None - -
01/17/2017 22:10 Ice Watch 10.4F - 17F - 5 - - - - 14 mhos 6294 - None None - -
01/17/2017 22:02 Ice Watch 10.4F - 17F - 5 - - - - 14 mhos 6259 - None None - -
01/17/2017 21:55 Ice Watch 10.4F - 17F - 5 - - - - 14 mhos 6217 - None None - -
01/17/2017 21:52 Ice Watch 10.4F - 17F - 5 - - - - 14 mhos 6200 - None None - -
01/17/2017 21:42 Ice Watch 10.6F - 17F - 5 - - - - 14 mhos 6136 - None None - -
Date/Time
(MST)
Sf
Temp Chem Water Layer Surface Precipitation
Sfc Pvt Sub Frz Factor Pct Dpth DpthThk IcePct Cond Salin FI Type Intens Accum Rate
01/17/2017 21:40 Ice Watch 10.6F - 17F - 5 - - - - 14 mhos 6147 - None None - -
01/17/2017 21:32 Ice Watch 11.1F - 17F - 5 - - - - 14 mhos 5997 - None None - -
01/17/2017 21:25 Ice Watch 10.6F - 17F - 5 - - - - 14 mhos 6071 - None None - -
01/17/2017 21:22 Ice Watch 10.6F - 17F - 5 - - - - 14 mhos 6051 - None None - -
01/17/2017 21:12 Ice Watch 10.9F - 17F - 5 - - - - 13 mhos 5930 - None None - -
01/17/2017 21:10 Ice Watch 10.9F - 17F - 5 - - - - 13 mhos 5930 - None None - -
01/17/2017 21:02 Ice Watch 11.3F - 17F - 5 - - - - 14 mhos 5792 - None None - -
01/17/2017 20:55 Ice Watch 11.7F - 17F - 5 - - - - 14 mhos 5698 - None None - -
01/17/2017 20:52 Ice Watch 11.7F - 17F - 5 - - - - 14 mhos 5688 - None None - -
01/17/2017 20:42 Ice Watch 11.3F - 17F - 5 - - - - 13 mhos 5701 - None None - -
01/17/2017 20:40 Ice Watch 11.3F - 17F - 5 - - - - 13 mhos 5706 - None None - -
01/17/2017 20:32 Ice Watch 11.7F - 17F - 5 - - - - 13 mhos 5607 - None None - -
01/17/2017 20:25 Ice Watch 11.8F - 17F - 5 - - - - 13 mhos 5561 - None None - -
01/17/2017 20:22 Ice Watch 12.0F - 17F - 5 - - - - 13 mhos 5510 - None None - -
01/17/2017 20:12 Ice Watch 12.4F - 17F - 5 - - - - 13 mhos 5414 - None None - -
Date/Time
(MST)
Sf
Temp Chem Water Layer Surface Precipitation
Sfc Pvt Sub Frz Factor Pct Dpth DpthThk IcePct Cond Salin FI Type Intens Accum Rate
01/17/2017 20:10 Ice Watch 12.4F - 17F - 5 - - - - 13 mhos 5359 - None None - -
01/17/2017 20:02 Ice Watch 12.7F - 17F - 5 - - - - 13 mhos 5268 - None None - -
01/17/2017 19:55 Ice Watch 12.9F - 17F - 5 - - - - 13 mhos 5192 - None None - -
01/17/2017 19:51 Ice Watch 13.1F - 17F - 5 - - - - 13 mhos 5143 - None None - -
01/17/2017 19:41 Ice Watch 13.3F - 17F - 5 - - - - 13 mhos 5020 - None None - -
01/17/2017 19:40 Ice Watch 13.3F - 17F - 5 - - - - 13 mhos 5046 - None None - -
01/17/2017 19:31 Ice Watch 13.3F - 17F - 5 - - - - 13 mhos 4971 - None None - -
01/17/2017 19:25 Ice Watch 13.6F - 17F - 5 - - - - 13 mhos 4864 - None None - -
01/17/2017 19:21 Ice Watch 13.6F - 17F - 5 - - - - 13 mhos 4872 - None None - -
01/17/2017 19:11 Ice Watch 14.0F - 17F - 5 - - - - 13 mhos 4744 - None None - -
01/17/2017 19:10 Ice Watch 14.0F - 17F - 5 - - - - 13 mhos 4728 - None None - -
01/17/2017 19:01 Ice Watch 13.8F - 17F - 5 - - - - 13 mhos 4721 - None None - -
01/17/2017 18:55 Ice Watch 14.0F - 17F - 5 - - - - 13 mhos 4655 - None None - -
01/17/2017 18:51 Ice Watch 13.8F - 17F - 5 - - - - 12 mhos 4641 - None None - -
01/17/2017 18:41 Ice Watch 13.8F - 17F - 5 - - - - 12 mhos 4624 - None None - -
Date/Time
(MST)
Sf
Temp Chem Water Layer Surface Precipitation
Sfc Pvt Sub Frz Factor Pct Dpth DpthThk IcePct Cond Salin FI Type Intens Accum Rate
01/17/2017 18:40 Ice Watch 14.0F - 17F - 5 - - - - 12 mhos 4589 - None None - -
01/17/2017 18:31 Ice Watch 14.0F - 17F - 10 - - - - 12 mhos 4545 - None None - -
01/17/2017 18:25 Ice Watch 14.4F - 17F - 15 - - - - 12 mhos 4437 - None None - -
01/17/2017 18:21 Ice Watch 14.4F - 17F - 20 - - - - 12 mhos 4467 - None None - -
01/17/2017 18:11 Ice Watch 14.7F - 17F - 25 - - - - 12 mhos 4370 - None None - -
01/17/2017 18:10 Ice Watch 14.9F - 17F - 20 - - - - 12 mhos 4354 - None None - -
01/17/2017 18:01 Ice Watch 15.3F - 17F - 20 - - - - 12 mhos 4245 - None None - -
01/17/2017 17:55 Ice Watch 15.4F - 16F - 30 - - - - 13 mhos 4248 - None None - -
01/17/2017 17:51 Ice Watch 15.6F - 16F - 30 - - - - 13 mhos 4192 - None None - -
01/17/2017 17:41 Ice Watch 16.2F - 16F - 35 - - - - 13 mhos 4106 - None None - -
01/17/2017 17:40 Ice Watch 16.2F - 16F - 40 - - - - 13 mhos 4071 - None None - -
01/17/2017 17:31 Ice Watch 16.7F - 16F - 45 - - - - 13 mhos 4000 - None None - -
01/17/2017 17:25 Ice Watch 17.1F - 16F - 45 - - - - 13 mhos 3977 - None None - -
01/17/2017 17:21 Ice Watch 17.6F - 16F - 40 - - - - 13 mhos 3863 - None None - -
Change End Date:

Copyright © 1998-2015 Vaisala, Inc.
All Rights Reserved
Send comments about the data to:
SCAN Web ® is a registered trademark of Vaisala, Inc.
SCAN Web Version 6.0